Weather History for Grand Island, NE

Change the Weather History Date:

Thursday, June 20, 2013

  Actual Average Record
Temperature  
Mean Temperature 82 °F 73 °F  
Max Temperature 94 °F 85 °F 104 °F (1974)
Min Temperature 69 °F 61 °F 41 °F (1920)
Degree Days  
Heating Degree Days 0 0  
Month to date heating degree days 21 21  
Since 1 June heating degree days 21 21  
Since 1 July heating degree days 6133 6196  
Cooling Degree Days 17 8  
Month to date cooling degree days 135 117  
Year to date cooling degree days 230 182  
Since 1 June cooling degree days 135 117  
Growing Degree Days 31 (Base 50)    
Moisture  
Dew Point 66 °F    
Average Humidity 66    
Maximum Humidity 90    
Minimum Humidity 41    
Precipitation  
Precipitation 0.00 in 0.13 in 1.92 in (2010)
Month to date precipitation 0.29 2.96  
Year to date precipitation 13.66 12.91  
Snow  
Snow 0.00 in 0.00 in - ()
Month to date snowfall 0.0 0.0  
Since 1 June snowfall 0.0 0.0  
Since 1 July snowfall 35.2 29.0  
Snow Depth 0.00 in    
Sea Level Pressure  
Sea Level Pressure 29.79 in    
Wind  
Wind Speed 16 mph (SSE)    
Max Wind Speed 25 mph    
Max Gust Speed 33 mph    
Visibility 10 miles    
Events      
T = Trace of Precipitation, MM = Missing Value Source: NWS Daily Summary

Daily Weather History Graph

Daily Weather History Graph

Search for Another Location

Airport:

Trip Planner

Search our weather history database for the weather conditions in past years. The results will help you decide how hot, cold, wet, or windy it might be!

Date:

Astronomy

Jun. 20, 2013 Rise Set
Actual Time 6:01 AM CDT 9:08 PM CDT
Civil Twilight 5:27 AM CDT 9:42 PM CDT
Nautical Twilight 4:44 AM CDT 10:25 PM CDT
Astronomical Twilight 3:53 AM CDT 11:16 PM CDT
Moon 6:11 PM CDT (6/20) 3:29 AM CDT (6/20)
Length of Visible Light 16h 14m
Length of Day
15h 07m
Waxing Gibbous, 89% of the Moon is Illuminated
Jun 20
Waxing Gibbous
Jun 23
Full
Jun 29
Last Quarter
Jul 8
New
Jul 15
First Quarter

Hourly Weather History & Observations

Time (CDT) Temp. Heat Index Dew Point Humidity Pressure Visibility Wind Dir Wind Speed Gust Speed Precip Events Conditions
12:53 AM 73.9 °F - 62.1 °F 66% 29.86 in 10.0 mi SSE 17.3 mph 23.0 mph N/A   Clear
1:53 AM 73.0 °F - 62.1 °F 68% 29.85 in 10.0 mi SSE 17.3 mph 23.0 mph N/A   Clear
2:53 AM 71.1 °F - 63.0 °F 75% 29.84 in 10.0 mi SSE 16.1 mph 25.3 mph N/A   Clear
3:53 AM 70.0 °F - 63.0 °F 78% 29.83 in 10.0 mi SSE 16.1 mph 23.0 mph N/A   Clear
4:53 AM 69.1 °F - 64.0 °F 84% 29.82 in 10.0 mi SSE 12.7 mph - N/A   Clear
5:21 AM 69.8 °F - 64.4 °F 83% 29.86 in 10.0 mi SSE 13.8 mph - N/A   Mostly Cloudy
5:53 AM 70.0 °F - 64.9 °F 84% 29.81 in 10.0 mi SSE 13.8 mph - N/A   Overcast
6:53 AM 70.0 °F - 66.0 °F 87% 29.80 in 10.0 mi SSE 12.7 mph 23.0 mph N/A   Overcast
7:53 AM 72.0 °F - 66.9 °F 84% 29.80 in 10.0 mi SSE 15.0 mph 24.2 mph N/A   Overcast
8:44 AM 73.4 °F - 66.2 °F 78% 29.85 in 10.0 mi South 13.8 mph 20.7 mph N/A   Overcast
8:53 AM 73.9 °F - 66.9 °F 79% 29.80 in 10.0 mi South 16.1 mph 23.0 mph N/A   Overcast
9:53 AM 77.0 °F - 66.9 °F 71% 29.79 in 10.0 mi South 18.4 mph 27.6 mph N/A   Mostly Cloudy
10:53 AM 81.0 °F 83.8 °F 68.0 °F 65% 29.80 in 10.0 mi South 12.7 mph 23.0 mph N/A   Mostly Cloudy
11:19 AM 82.4 °F 85.4 °F 68.0 °F 62% 29.85 in 10.0 mi SSE 16.1 mph 23.0 mph N/A   Scattered Clouds
11:53 AM 84.0 °F 87.0 °F 68.0 °F 58% 29.79 in 10.0 mi South 18.4 mph 25.3 mph N/A   Clear
12:53 PM 88.0 °F 90.7 °F 66.9 °F 49% 29.78 in 10.0 mi South 19.6 mph 28.8 mph N/A   Clear
1:53 PM 91.0 °F 93.8 °F 66.0 °F 44% 29.75 in 10.0 mi South 20.7 mph 28.8 mph N/A   Clear
2:53 PM 91.9 °F 94.5 °F 66.0 °F 42% 29.74 in 10.0 mi South 20.7 mph 28.8 mph N/A   Clear
3:53 PM 93.9 °F 97.0 °F 66.0 °F 40% 29.73 in 10.0 mi SSW 20.7 mph - N/A   Partly Cloudy
4:53 PM 93.0 °F 96.4 °F 66.9 °F 42% 29.72 in 10.0 mi South 18.4 mph 24.2 mph N/A   Partly Cloudy
5:53 PM 91.0 °F 95.2 °F 68.0 °F 47% 29.73 in 10.0 mi South 17.3 mph 26.5 mph N/A   Scattered Clouds
6:53 PM 91.0 °F 94.3 °F 66.9 °F 45% 29.73 in 10.0 mi South 13.8 mph - N/A   Partly Cloudy
7:53 PM 89.1 °F 93.7 °F 69.1 °F 52% 29.73 in 10.0 mi SSE 11.5 mph 19.6 mph N/A   Clear
8:53 PM 86.0 °F 90.1 °F 69.1 °F 57% 29.73 in 10.0 mi ESE 6.9 mph - N/A   Clear
9:53 PM 84.9 °F 88.2 °F 68.0 °F 57% 29.75 in 10.0 mi SE 9.2 mph - N/A   Clear
10:53 PM 84.0 °F 85.8 °F 64.9 °F 53% 29.77 in 10.0 mi SSE 15.0 mph - N/A   Clear
11:53 PM 82.9 °F 85.0 °F 66.0 °F 56% 29.75 in 10.0 mi SSE 16.1 mph 21.9 mph N/A   Clear